Satellite: OKEAN-4 Catalog number: 23317 Epoch time: 10273.31986262 Element set: 353 Inclination: 082.5380 deg RA of node: 255.7213 deg Eccentricity: 0.0020314 Arg of perigee: 254.7325 deg Mean anomaly: 105.1652 deg Mean motion: 14.82866256 rev/day Decay rate: 1.90e-06 rev/day^2 Epoch rev: 86203 Checksum: 277
Satellite: NOAA-14 Catalog number: 23455 Epoch time: 10273.37885359 Element set: 214 Inclination: 098.8726 deg RA of node: 353.3572 deg Eccentricity: 0.0008729 Arg of perigee: 301.1200 deg Mean anomaly: 058.9112 deg Mean motion: 14.13795670 rev/day Decay rate: 4.1e-07 rev/day^2 Epoch rev: 81236 Checksum: 298
Satellite: NOAA-15 Catalog number: 25338 Epoch time: 10273.41801430 Element set: 541 Inclination: 098.6306 deg RA of node: 258.5128 deg Eccentricity: 0.0011460 Arg of perigee: 125.4990 deg Mean anomaly: 234.7274 deg Mean motion: 14.24858002 rev/day Decay rate: 2.20e-06 rev/day^2 Epoch rev: 64373 Checksum: 276
Satellite: RESURS Catalog number: 25394 Epoch time: 10273.37864341 Element set: 615 Inclination: 098.3036 deg RA of node: 285.7265 deg Eccentricity: 0.0000687 Arg of perigee: 314.4918 deg Mean anomaly: 045.6206 deg Mean motion: 14.24210956 rev/day Decay rate: 2.5e-07 rev/day^2 Epoch rev: 63532 Checksum: 292
Satellite: FENGYUN1 Catalog number: 25730 Epoch time: 10272.82045300 Element set: 147 Inclination: 098.7938 deg RA of node: 235.0863 deg Eccentricity: 0.0022183 Arg of perigee: 333.0185 deg Mean anomaly: 026.9870 deg Mean motion: 14.08302322 rev/day Decay rate: 6.39e-06 rev/day^2 Epoch rev: 58641 Checksum: 282
Satellite: OKEAN-0 Catalog number: 25860 Epoch time: 10273.52489308 Element set: 112 Inclination: 097.8460 deg RA of node: 242.7188 deg Eccentricity: 0.0001870 Arg of perigee: 085.4524 deg Mean anomaly: 274.6892 deg Mean motion: 14.73666414 rev/day Decay rate: 1.10e-06 rev/day^2 Epoch rev: 60241 Checksum: 292
Satellite: NOAA-16 Catalog number: 26536 Epoch time: 10273.41185627 Element set: 17 Inclination: 099.1669 deg RA of node: 293.3467 deg Eccentricity: 0.0011040 Arg of perigee: 045.7405 deg Mean anomaly: 314.4693 deg Mean motion: 14.12577292 rev/day Decay rate: -1.5e-07 rev/day^2 Epoch rev: 51668 Checksum: 303
Satellite: NOAA-17 Catalog number: 27453 Epoch time: 10273.38003499 Element set: 10 Inclination: 098.4187 deg RA of node: 319.5277 deg Eccentricity: 0.0011624 Arg of perigee: 185.5345 deg Mean anomaly: 174.5713 deg Mean motion: 14.24195007 rev/day Decay rate: 2.33e-06 rev/day^2 Epoch rev: 42967 Checksum: 302
Satellite: NOAA-18 Catalog number: 28654 Epoch time: 10273.43324569 Element set: 498 Inclination: 098.9606 deg RA of node: 219.4394 deg Eccentricity: 0.0015167 Arg of perigee: 114.9746 deg Mean anomaly: 245.3010 deg Mean motion: 14.11391214 rev/day Decay rate: -1.17e-06 rev/day^2 Epoch rev: 27628 Checksum: 313
Satellite: NOAA-19 Catalog number: 33591 Epoch time: 10273.44419876 Element set: 694 Inclination: 098.7955 deg RA of node: 213.3617 deg Eccentricity: 0.0014251 Arg of perigee: 355.1155 deg Mean anomaly: 004.9869 deg Mean motion: 14.11089156 rev/day Decay rate: 1.28e-06 rev/day^2 Epoch rev: 8475 Checksum: 327
/EX SB KEPS @ AMSAT $ORB10273.M Orbital Elements 10273.MISC
HR AMSAT ORBITAL ELEMENTS FOR MANNED AND MISCELLANEOUS SATELLITES FROM WA5QGD FORT WORTH,TX September 30, 2010 BID: ORB10273.M TO ALL RADIO AMATEURS BT
Satellite: HUBBLE Catalog number: 20580 Epoch time: 10272.23879036 Element set: 652 Inclination: 028.4704 deg RA of node: 280.5493 deg Eccentricity: 0.0003568 Arg of perigee: 222.9977 deg Mean anomaly: 137.0272 deg Mean motion: 15.01047691 rev/day Decay rate: 6.45e-06 rev/day^2 Epoch rev: 92040 Checksum: 289
Satellite: ISS Catalog number: 25544 Epoch time: 10274.00438780 Element set: 986 Inclination: 051.6461 deg RA of node: 049.2272 deg Eccentricity: 0.0007187 Arg of perigee: 051.0041 deg Mean anomaly: 054.0995 deg Mean motion: 15.71552096 rev/day Decay rate: 1.6846e-04 rev/day^2 Epoch rev: 68011 Checksum: 291
Satellite: CO-58 Catalog number: 28895 Epoch time: 10273.39264466 Element set: 692 Inclination: 097.9967 deg RA of node: 154.2936 deg Eccentricity: 0.0016930 Arg of perigee: 318.0130 deg Mean anomaly: 041.9792 deg Mean motion: 14.59939364 rev/day Decay rate: 2.06e-06 rev/day^2 Epoch rev: 26233 Checksum: 346
Satellite: FALCON Catalog number: 30776 Epoch time: 10273.91434565 Element set: 926 Inclination: 035.4328 deg RA of node: 122.3227 deg Eccentricity: 0.0001900 Arg of perigee: 348.5116 deg Mean anomaly: 011.5556 deg Mean motion: 15.03845811 rev/day Decay rate: 1.121e-05 rev/day^2 Epoch rev: 19598 Checksum: 276
Satellite: MAST Catalog number: 31126 Epoch time: 10273.67728617 Element set: 976 Inclination: 097.9268 deg RA of node: 310.1802 deg Eccentricity: 0.0093438 Arg of perigee: 258.2401 deg Mean anomaly: 100.8317 deg Mean motion: 14.53624077 rev/day Decay rate: 1.36e-06 rev/day^2 Epoch rev: 18338 Checksum: 298
Satellite: CAPE1 Catalog number: 31130 Epoch time: 10273.34834137 Element set: 994 Inclination: 097.9294 deg RA of node: 307.0739 deg Eccentricity: 0.0101463 Arg of perigee: 268.1670 deg Mean anomaly: 090.7873 deg Mean motion: 14.52227588 rev/day Decay rate: 1.44e-06 rev/day^2 Epoch rev: 18292 Checksum: 309
Satellite: COMPASS Catalog number: 32787 Epoch time: 10273.29842074 Element set: 790 Inclination: 097.8830 deg RA of node: 336.5545 deg Eccentricity: 0.0015050 Arg of perigee: 306.8127 deg Mean anomaly: 053.1662 deg Mean motion: 14.81983142 rev/day Decay rate: 7.92e-06 rev/day^2 Epoch rev: 13106 Checksum: 298
Satellite: AAUSAT2 Catalog number: 32788 Epoch time: 10272.61602595 Element set: 0781 Inclination: 097.8840 deg RA of node: 336.0346 deg Eccentricity: 0.0014677 Arg of perigee: 310.1860 deg Mean anomaly: 049.8126 deg Mean motion: 14.82131418 rev/day Decay rate: 8.71e-06 rev/day^2 Epoch rev: 13097 Checksum: 305
Satellite: DO-64 Catalog number: 32789 Epoch time: 10273.76051641 Element set: 799 Inclination: 097.8909 deg RA of node: 337.7606 deg Eccentricity: 0.0014559 Arg of perigee: 303.1095 deg Mean anomaly: 056.8705 deg Mean motion: 14.82334228 rev/day Decay rate: 1.327e-05 rev/day^2 Epoch rev: 13114 Checksum: 326
Satellite: CO-66 Catalog number: 32791 Epoch time: 10273.20114564 Element set: 783 Inclination: 097.8848 deg RA of node: 336.4602 deg Eccentricity: 0.0015403 Arg of perigee: 305.8243 deg Mean anomaly: 054.1587 deg Mean motion: 14.81748137 rev/day Decay rate: 2.34e-06 rev/day^2 Epoch rev: 13100 Checksum: 292
Satellite: RS-30 Catalog number: 32953 Epoch time: 10273.65072943 Element set: 90 Inclination: 082.5048 deg RA of node: 324.1077 deg Eccentricity: 0.0017736 Arg of perigee: 229.7441 deg Mean anomaly: 130.2090 deg Mean motion: 12.43008021 rev/day Decay rate: 1.0e-07 rev/day^2 Epoch rev: 10684 Checksum: 254
Satellite: TACSAT-3 Catalog number: 35001 Epoch time: 10272.55644394 Element set: 0408 Inclination: 040.4562 deg RA of node: 306.7240 deg Eccentricity: 0.0021019 Arg of perigee: 063.8756 deg Mean anomaly: 296.4220 deg Mean motion: 15.42869184 rev/day Decay rate: 7.552e-05 rev/day^2 Epoch rev: 07675 Checksum: 293
Satellite: PHARMSAT Catalog number: 35002 Epoch time: 10272.47811859 Element set: 370 Inclination: 040.4706 deg RA of node: 304.8716 deg Eccentricity: 0.0023842 Arg of perigee: 066.5413 deg Mean anomaly: 293.7906 deg Mean motion: 15.43274724 rev/day Decay rate: 6.386e-05 rev/day^2 Epoch rev: 7676 Checksum: 301
Satellite: HAWKSAT1 Catalog number: 35003 Epoch time: 10272.46795593 Element set: 401 Inclination: 040.4598 deg RA of node: 296.2392 deg Eccentricity: 0.0021558 Arg of perigee: 087.2326 deg Mean anomaly: 273.0956 deg Mean motion: 15.47511605 rev/day Decay rate: 1.5177e-04 rev/day^2 Epoch rev: 7686 Checksum: 311
Satellite: CP6 Catalog number: 35004 Epoch time: 10272.46087459 Element set: 397 Inclination: 040.4601 deg RA of node: 294.3942 deg Eccentricity: 0.0020573 Arg of perigee: 092.2492 deg Mean anomaly: 268.0682 deg Mean motion: 15.48785281 rev/day Decay rate: 1.8639e-04 rev/day^2 Epoch rev: 7687 Checksum: 328
Satellite: AEROCUB3 Catalog number: 35005 Epoch time: 10273.47735782 Element set: 468 Inclination: 040.4682 deg RA of node: 278.4571 deg Eccentricity: 0.0019824 Arg of perigee: 126.4765 deg Mean anomaly: 233.7887 deg Mean motion: 15.60378511 rev/day Decay rate: 8.1235e-04 rev/day^2 Epoch rev: 7714 Checksum: 323
Satellite: CASTOR Catalog number: 35694 Epoch time: 10230.44082147 Element set: 655 Inclination: 051.5930 deg RA of node: 222.0149 deg Eccentricity: 0.0004218 Arg of perigee: 308.0851 deg Mean anomaly: 053.0105 deg Mean motion: 16.48877011 rev/day Decay rate: 7.179566e-02 rev/day^2 Epoch rev: 6110 Checksum: 273
Satellite: METEOR-M Catalog number: 35865 Epoch time: 10273.69172490 Element set: 702 Inclination: 098.7460 deg RA of node: 326.6728 deg Eccentricity: 0.0003356 Arg of perigee: 058.8938 deg Mean anomaly: 301.2550 deg Mean motion: 14.21831794 rev/day Decay rate: 1.76e-06 rev/day^2 Epoch rev: 5371 Checksum: 309
Satellite: RS-38 Catalog number: 35869 Epoch time: 10273.79242652 Element set: 713 Inclination: 098.7452 deg RA of node: 326.8123 deg Eccentricity: 0.0005437 Arg of perigee: 063.0843 deg Mean anomaly: 297.0870 deg Mean motion: 14.21989635 rev/day Decay rate: 1.77e-06 rev/day^2 Epoch rev: 5373 Checksum: 330
/EX